Tracking 19254 objects as of 19-Oct-2018
HD Live streaming from Space Station
objects crossing your sky now

ELFIN-A

Track ELFIN-A now!
10-day predictions
ELFIN-A is classified as:


NORAD ID: 43617
Int'l Code: 2018-070E
Perigee: 452.1 km
Apogee: 475.3 km
Inclination: 93.0 °
Period: 93.7 minutes
Semi major axis: 6834 km
RCS: Unknown
Launch date: September 15, 2018
Source: United States (US)
Launch site: AIR FORCE WESTERN TEST RANGE (AFWTR)

Uplink (MHz):
Downlink (MHz): 437.450
Beacon (MHz):
Mode: 9600bps GFSK
Call sign: WJ2XNX
Status: Active

aabbcc
Your satellite tracking list
Your tracking list is empty




NASA's NSSDC Master Catalog

Two Line Element Set (TLE):
1 43617U 18070E   18292.64996984 -.00000006  00000-0  00000+0 0  9990
2 43617  93.0297 263.6320 0016950 147.3974 212.8725 15.36472158  5230
Source of the keplerian elements: AMSAT